Location: Newark
(12.4436°N, 0.6167°W)
Time: 18:57:01
(UTC+00:00)

deb Explorer IX - Pass Details

Date: 08 December 2019
Orbit: 548 x 1101 km, 38.8° (Epoch: 27 January)

Event Time Altitude Azimuth Distance (km) Brightness Sun altitude
Rises 22:26:16 0° 324° (NW) 3,886 - -66.6°
Reaches altitude 10° 22:29:34 10° 336° (NNW) 2,947 - -67.3°
Maximum altitude 22:35:27 26° 30° (NNE) 1,999 - -68.6°
Drops below altitude 10° 22:41:09 10° 84° (E) 2,854 - -69.7°
Sets 22:44:16 0° 97° (E) 3,742 - -70.4°
